Weather History for Osceola, WI

Change the Weather History Date:

Sunday, December 30, 2012

  Actual Average (KMSP) Record (KMSP)
Temperature  
Mean Temperature 10 °F 16 °F  
Max Temperature 19 °F 24 °F 51 °F (2004)
Min Temperature 0 °F 9 °F -20 °F (1973)
Degree Days  
Heating Degree Days 56 49  
Month to date heating degree days 1356  
Since 1 July heating degree days 2975  
Cooling Degree Days 0 0  
Month to date cooling degree days 0  
Year to date cooling degree days 753  
Moisture  
Dew Point 9 °F    
Average Humidity 84    
Maximum Humidity 93    
Minimum Humidity 73    
Precipitation  
Precipitation 0.00 in 0.04 in 0.39 in (1884)
Month to date precipitation 1.13  
Year to date precipitation 30.58  
Snow  
Snow 0.00 in 0.30 in 4.00 in (1906)
Month to date snowfall 11.5  
Since 1 July snowfall 21.4  
Snow Depth -    
Sea Level Pressure  
Sea Level Pressure 30.03 in    
Wind  
Wind Speed 5 mph (SSE)    
Max Wind Speed 12 mph    
Max Gust Speed -    
Visibility 9 miles    
Events      
T = Trace of Precipitation, MM = Missing Value Source: NWS Daily Summary

Daily Weather History Graph

Daily Weather History Graph

Search for Another Location

Airport:

Trip Planner

Search our weather history database for the weather conditions in past years. The results will help you decide how hot, cold, wet, or windy it might be!

Date:

Astronomy

Dec. 30, 2012 Rise Set
Actual Time 7:50 AM CST 4:37 PM CST
Civil Twilight 7:16 AM CST 5:11 PM CST
Nautical Twilight 6:38 AM CST 5:48 PM CST
Astronomical Twilight 6:02 AM CST 6:24 PM CST
Moon 7:16 PM CST (12/30) 8:52 AM CST (12/30)
Length of Visible Light 9h 55m
Length of Day
8h 47m
Waning Gibbous, 95% of the Moon is Illuminated
Dec 30
Waning Gibbous
Jan 4
Last Quarter
Jan 11
New
Jan 18
First Quarter
Jan 26
Full

Hourly Weather History & Observations

Time (CST) Temp. Windchill Dew Point Humidity Pressure Visibility Wind Dir Wind Speed Gust Speed Precip Events Conditions
12:15 AM 3.2 °F -7.8 °F 1.4 °F 92% 30.17 in 10.0 mi WSW 5.8 mph - N/A   Clear
12:35 AM 3.2 °F - 1.4 °F 92% 30.16 in 10.0 mi Calm Calm - N/A   Clear
12:55 AM 1.4 °F - -0.4 °F 92% 30.17 in 7.0 mi Calm Calm - N/A   Clear
1:15 AM 3.2 °F -4.2 °F -0.4 °F 85% 30.18 in 7.0 mi WSW 3.5 mph - N/A   Clear
1:35 AM 1.4 °F - -0.4 °F 92% 30.18 in 7.0 mi Calm Calm - N/A   Clear
1:55 AM -0.4 °F - -4.0 °F 85% 30.19 in 7.0 mi Calm Calm - N/A   Clear
7:35 AM 1.4 °F -6.2 °F -0.4 °F 92% 30.17 in 7.0 mi SE 3.5 mph - N/A   Clear
7:55 AM 1.4 °F -8.3 °F -2.2 °F 85% 30.17 in 7.0 mi ESE 4.6 mph - N/A   Clear
8:15 AM 1.4 °F -9.9 °F -0.4 °F 92% 30.18 in 7.0 mi South 5.8 mph - N/A   Clear
8:35 AM 1.4 °F -9.9 °F -0.4 °F 92% 30.19 in 7.0 mi South 5.8 mph - N/A   Clear
8:55 AM 3.2 °F -7.8 °F 1.4 °F 92% 30.19 in 7.0 mi South 5.8 mph - N/A   Clear
9:15 AM 3.2 °F -9.1 °F 1.4 °F 92% 30.19 in 7.0 mi SSE 6.9 mph - N/A   Clear
9:35 AM 5.0 °F -5.6 °F 1.4 °F 85% 30.19 in 7.0 mi SSE 5.8 mph - N/A   Clear
9:55 AM 5.0 °F -4.1 °F 3.2 °F 92% 30.19 in 7.0 mi SSE 4.6 mph - N/A   Clear
10:15 AM 6.8 °F -2.0 °F 3.2 °F 85% 30.19 in 7.0 mi SSE 4.6 mph - N/A   Clear
10:35 AM 8.6 °F -1.3 °F 5.0 °F 85% 30.18 in 7.0 mi SSE 5.8 mph - N/A   Clear
10:55 AM 10.4 °F 0.8 °F 6.8 °F 85% 30.16 in 7.0 mi SSE 5.8 mph - N/A   Clear
11:15 AM 12.2 °F 0.7 °F 8.6 °F 85% 30.14 in 7.0 mi SSE 8.1 mph - N/A   Clear
11:35 AM 12.2 °F 1.7 °F 8.6 °F 85% 30.13 in 10.0 mi SSE 6.9 mph - N/A   Clear
11:55 AM 12.2 °F 0.7 °F 8.6 °F 85% 30.11 in 10.0 mi ESE 8.1 mph - N/A   Clear
12:15 PM 14.0 °F 6.5 °F 8.6 °F 79% 30.10 in 10.0 mi SE 4.6 mph - N/A   Clear
12:35 PM 14.0 °F 5.1 °F 8.6 °F 79% 30.09 in 10.0 mi SE 5.8 mph - N/A   Clear
12:55 PM 14.0 °F 5.1 °F 8.6 °F 79% 30.07 in 10.0 mi ESE 5.8 mph - N/A   Clear
1:15 PM 14.0 °F 2.0 °F 10.4 °F 86% 30.05 in 10.0 mi ESE 9.2 mph - N/A   Clear
1:35 PM 15.8 °F 3.4 °F 10.4 °F 79% 30.03 in 10.0 mi ESE 10.4 mph - N/A   Clear
1:55 PM 17.6 °F 8.2 °F 10.4 °F 73% 30.02 in 10.0 mi SE 6.9 mph - N/A   Clear
2:15 PM 17.6 °F 7.3 °F 10.4 °F 73% 30.01 in 10.0 mi SE 8.1 mph - N/A   Clear
2:35 PM 17.6 °F 7.3 °F 12.2 °F 79% 30.00 in 10.0 mi SE 8.1 mph - N/A   Clear
2:55 PM 17.6 °F 7.3 °F 12.2 °F 79% 29.98 in 10.0 mi SE 8.1 mph - N/A   Clear
3:15 PM 19.4 °F 8.6 °F 12.2 °F 74% 29.97 in 10.0 mi SE 9.2 mph - N/A   Clear
3:35 PM 19.4 °F 8.6 °F 14.0 °F 80% 29.96 in 10.0 mi SE 9.2 mph - N/A   Clear
3:55 PM 19.4 °F 9.5 °F 14.0 °F 80% 29.96 in 10.0 mi SE 8.1 mph - N/A   Clear
4:15 PM 19.4 °F 7.2 °F 12.2 °F 74% 29.95 in 10.0 mi SE 11.5 mph - N/A   Clear
4:35 PM 19.4 °F 7.9 °F 12.2 °F 74% 29.94 in 10.0 mi ESE 10.4 mph - N/A   Clear
4:55 PM 19.4 °F 9.5 °F 12.2 °F 74% 29.93 in 10.0 mi SE 8.1 mph - N/A   Clear
5:15 PM 19.4 °F 11.5 °F 12.2 °F 74% 29.94 in 10.0 mi SE 5.8 mph - N/A   Clear
5:35 PM 17.6 °F 9.3 °F 12.2 °F 79% 29.94 in 10.0 mi ESE 5.8 mph - N/A   Mostly Cloudy
5:55 PM 19.4 °F 9.5 °F 14.0 °F 80% 29.94 in 10.0 mi ESE 8.1 mph - N/A   Overcast
6:15 PM 19.4 °F 11.5 °F 14.0 °F 80% 29.93 in 10.0 mi SE 5.8 mph - N/A   Scattered Clouds
6:35 PM 19.4 °F 12.8 °F 14.0 °F 80% 29.93 in 10.0 mi SSE 4.6 mph - N/A   Clear
6:55 PM 19.4 °F 10.4 °F 14.0 °F 80% 29.93 in 10.0 mi SSE 6.9 mph - N/A   Clear
7:15 PM 19.4 °F 11.5 °F 14.0 °F 80% 29.92 in 10.0 mi SSE 5.8 mph - N/A   Clear
7:35 PM 19.4 °F 11.5 °F 14.0 °F 80% 29.92 in 10.0 mi South 5.8 mph - N/A   Clear
7:55 PM 19.4 °F 12.8 °F 14.0 °F 80% 29.91 in 10.0 mi South 4.6 mph - N/A   Clear
8:15 PM 19.4 °F 12.8 °F 14.0 °F 80% 29.91 in 10.0 mi South 4.6 mph - N/A   Clear
8:35 PM 19.4 °F 12.8 °F 14.0 °F 80% 29.91 in 10.0 mi South 4.6 mph - N/A   Clear
8:55 PM 17.6 °F 9.3 °F 14.0 °F 86% 29.90 in 10.0 mi South 5.8 mph - N/A   Clear
9:15 PM 19.4 °F 10.4 °F 15.8 °F 86% 29.90 in 10.0 mi South 6.9 mph - N/A   Clear
9:35 PM 17.6 °F 12.3 °F 14.0 °F 86% 29.91 in 10.0 mi SW 3.5 mph - N/A   Clear
9:55 PM 15.8 °F 10.2 °F 14.0 °F 93% 29.91 in 10.0 mi West 3.5 mph - N/A   Clear
10:15 PM 14.0 °F 6.5 °F 12.2 °F 93% 29.91 in 10.0 mi WSW 4.6 mph - N/A   Clear
10:35 PM 14.0 °F 5.1 °F 12.2 °F 93% 29.92 in 10.0 mi WSW 5.8 mph - N/A   Clear
10:55 PM 17.6 °F 9.3 °F 14.0 °F 86% 29.93 in 10.0 mi West 5.8 mph - N/A   Clear
11:15 PM 17.6 °F 8.2 °F 15.8 °F 93% 29.94 in 10.0 mi WNW 6.9 mph - N/A   Clear
11:35 PM 17.6 °F 7.3 °F 14.0 °F 86% 29.94 in 10.0 mi WNW 8.1 mph - N/A   Clear
11:55 PM 17.6 °F 7.3 °F 14.0 °F 86% 29.95 in 10.0 mi WNW 8.1 mph - N/A   Clear